Date String (YYYY-MM-DD hh:mm:ss) UTC,Instrument flags,Ambient pressure (hPa),Sample flow (lpm),Bypass flow (lpm),Sample temperature (°C),Ambient temperature (°C),ASC tube jacket temperature (°C),LED temperature (°C),Box temperature (°C),Sample RH (%),Span deviation,Mass concentration (μg/m³),Mass concentration (μg/m³),Mass concentration (μg/m³)
DateTimeUTC,F1_M11,P_M11,Q1_M11,Q2_M11,T1_M11,T2_M11,T3_M11,T4_M11,T5_M11,U1_M11,ZSPAN_M11,X2_M11,X0_M11,X1_M11
2023-01-20 06:00:00,,0825.5,5.00,0.00,22.4,21.2,00.0,31.2,24.1,09.8,0003.7,0011.82,0020.21,0010.89
2023-01-20 06:01:00,,0825.5,5.01,0.00,22.5,22.0,00.0,31.2,24.4,09.8,0003.5,0011.81,0020.31,0010.89
2023-01-20 06:02:00,,0825.5,4.99,0.00,22.6,22.6,00.0,31.2,24.5,09.7,0003.3,0011.78,0020.11,0010.90
2023-01-20 06:03:00,,0825.4,4.99,0.00,22.6,22.4,00.0,31.3,24.6,09.7,0003.0,0011.77,0020.69,0010.93
2023-01-20 06:04:00,,0825.5,5.01,0.00,22.6,22.0,00.0,31.3,24.5,09.6,0002.7,0011.76,0020.04,0010.94
2023-01-20 06:05:00,,0825.4,5.00,0.00,22.6,21.7,00.0,31.3,24.4,09.4,0002.7,0011.71,0019.31,0010.91
2023-01-20 06:06:00,,0825.4,5.00,0.00,22.6,21.5,00.0,31.3,24.4,09.4,0002.9,0011.68,0019.64,0010.91
2023-01-20 06:07:00,,0825.4,5.01,0.00,22.6,21.3,00.0,31.3,24.3,09.4,0003.0,0011.63,0019.72,0010.87
2023-01-20 06:08:00,,0825.4,5.03,0.00,22.6,21.2,00.0,31.3,24.3,09.3,0002.9,0011.65,0020.03,0010.87
2023-01-20 06:09:00,,0825.4,5.00,0.00,22.5,21.1,00.0,31.3,24.3,09.3,0002.2,0011.65,0020.06,0010.86
2023-01-20 06:10:00,,0825.5,5.00,0.00,22.5,21.0,00.0,31.3,24.2,09.3,0000.8,0011.64,0020.47,0010.84
2023-01-20 06:11:00,,0825.4,4.99,0.00,22.5,21.0,00.0,31.3,24.2,09.4,0000.5,0011.58,0020.55,0010.78
2023-01-20 06:12:00,,0825.5,5.00,0.00,22.5,20.9,00.0,31.3,24.2,09.4,0000.2,0011.55,0020.59,0010.72
2023-01-20 06:13:00,,0825.5,5.01,0.00,22.5,20.9,00.0,31.3,24.2,09.3,0000.5,0011.47,0020.93,0010.63
2023-01-20 06:14:00,,0825.5,5.02,0.00,22.4,20.9,00.0,31.3,24.1,09.3,0001.1,0011.35,0020.95,0010.51
2023-01-20 06:15:00,,0825.5,5.00,0.00,22.4,20.9,00.0,31.3,24.1,09.3,0001.2,0011.26,0020.97,0010.40
2023-01-20 06:16:00,,0825.5,4.99,0.00,22.4,20.9,00.0,31.3,24.1,09.3,0000.5,0011.19,0020.64,0010.32
2023-01-20 06:17:00,,0825.5,5.00,0.00,22.4,20.9,00.0,31.3,24.1,09.2,0001.5,0011.07,0020.12,0010.24
2023-01-20 06:18:00,,0825.5,5.00,0.00,22.4,21.4,00.0,31.2,24.2,09.2,0001.6,0010.97,0019.99,0010.17
2023-01-20 06:19:00,,0825.5,4.99,0.00,22.5,22.4,00.0,31.2,24.5,09.1,0001.8,0010.87,0019.54,0010.11
2023-01-20 06:20:00,,0825.5,4.99,0.00,22.6,23.0,00.0,31.3,24.7,09.0,0001.8,0010.76,0019.23,0010.03
2023-01-20 06:21:00,,0825.5,5.00,0.00,22.7,22.8,00.0,31.3,24.7,09.0,0002.2,0010.63,0018.51,0009.94
2023-01-20 06:22:00,,0825.6,4.99,0.00,22.7,22.4,00.0,31.3,24.6,09.0,0002.1,0010.56,0018.39,0009.87
2023-01-20 06:23:00,,0825.5,5.00,0.00,22.7,22.1,00.0,31.4,24.6,09.0,0002.4,0010.46,0018.15,0009.81
2023-01-20 06:24:00,,0825.4,5.01,0.00,22.7,21.8,00.0,31.4,24.5,09.0,0002.3,0010.39,0017.53,0009.74
2023-01-20 06:25:00,,0825.4,5.00,0.00,22.7,21.6,00.0,31.4,24.5,08.9,0001.9,0010.31,0016.86,0009.66
2023-01-20 06:26:00,,0825.4,5.01,0.00,22.7,21.5,00.0,31.4,24.5,08.9,0001.6,0010.18,0015.94,0009.55
2023-01-20 06:27:00,,0825.5,4.99,0.00,22.7,21.4,00.0,31.4,24.5,08.8,0002.3,0010.09,0016.23,0009.46
2023-01-20 06:28:00,,0825.4,5.01,0.00,22.7,21.3,00.0,31.4,24.4,08.8,0001.7,0009.99,0016.03,0009.37
2023-01-20 06:29:00,,0825.4,5.00,0.00,22.7,21.3,00.0,31.4,24.4,08.7,0002.0,0009.87,0015.50,0009.27
2023-01-20 06:30:00,,0825.4,4.99,0.00,22.7,21.2,00.0,31.4,24.4,08.7,0002.4,0009.78,0015.68,0009.16
2023-01-20 06:31:00,,0825.4,5.00,0.00,22.6,21.2,00.0,31.4,24.4,08.7,0002.8,0009.69,0015.60,0009.05
2023-01-20 06:32:00,,0825.3,5.00,0.00,22.6,21.2,00.0,31.4,24.3,08.7,0002.4,0009.64,0015.66,0008.95
2023-01-20 06:33:00,,0825.4,5.00,0.00,22.6,21.2,00.0,31.4,24.3,08.6,0001.2,0009.53,0015.59,0008.83
2023-01-20 06:34:00,,0825.4,4.98,0.00,22.6,21.1,00.0,31.4,24.3,08.6,0000.0,0009.35,0015.30,0008.68
2023-01-20 06:35:00,,0825.3,4.99,0.00,22.6,21.1,00.0,31.4,24.3,08.6,0001.1,0009.19,0015.15,0008.56
2023-01-20 06:36:00,,0825.4,5.00,0.00,22.6,21.0,00.0,31.4,24.3,08.6,0000.6,0009.04,0014.91,0008.43
2023-01-20 06:37:00,,0825.3,5.01,0.00,22.5,21.0,00.0,31.3,24.3,08.6,0001.4,0008.96,0014.97,0008.36
2023-01-20 06:38:00,,0825.4,5.01,0.00,22.5,20.9,00.0,31.3,24.3,08.7,0000.0,0008.86,0014.14,0008.30
2023-01-20 06:39:00,,0825.4,4.98,0.00,22.5,21.0,00.0,31.3,24.3,08.7,0000.0,0008.80,0014.63,0008.24
2023-01-20 06:40:00,,0825.4,5.02,0.00,22.5,21.6,00.0,31.3,24.4,08.7,0000.0,0008.77,0014.61,0008.19
2023-01-20 06:41:00,,0825.4,4.98,0.00,22.6,22.5,00.0,31.3,24.6,08.7,0000.0,0008.74,0014.46,0008.17
2023-01-20 06:42:00,,0825.4,5.00,0.00,22.7,23.1,00.0,31.4,24.8,08.7,0000.0,0008.72,0015.17,0008.15
2023-01-20 06:43:00,,0825.4,4.99,0.00,22.8,22.8,00.0,31.4,24.8,08.7,0000.0,0008.70,0015.36,0008.14
2023-01-20 06:44:00,,0825.4,5.00,0.00,22.8,22.4,00.0,31.4,24.7,08.7,0000.0,0008.72,0015.30,0008.16
2023-01-20 06:45:00,,0825.4,5.00,0.00,22.8,22.1,00.0,31.4,24.7,08.7,0000.0,0008.79,0015.66,0008.21
2023-01-20 06:46:00,,0825.4,5.00,0.00,22.8,21.8,00.0,31.5,24.6,08.7,0000.0,0008.85,0015.66,0008.26
2023-01-20 06:47:00,,0825.3,4.99,0.00,22.8,21.6,00.0,31.5,24.6,08.7,0000.2,0008.92,0015.78,0008.33
2023-01-20 06:48:00,,0825.4,5.00,0.00,22.8,21.5,00.0,31.5,24.5,08.8,0001.5,0008.99,0016.21,0008.41
2023-01-20 06:49:00,,0825.4,4.99,0.00,22.8,21.4,00.0,31.5,24.5,08.8,0001.6,0009.13,0016.47,0008.50
2023-01-20 06:50:00,,0825.4,5.01,0.00,22.7,21.3,00.0,31.5,24.5,08.9,0002.5,0009.23,0016.13,0008.62
2023-01-20 06:51:00,,0825.4,4.99,0.00,22.7,21.3,00.0,31.5,24.5,08.9,0002.3,0009.35,0016.03,0008.73
2023-01-20 06:52:00,,0825.4,5.00,0.00,22.7,21.2,00.0,31.5,24.4,09.0,0001.7,0009.50,0016.81,0008.84
2023-01-20 06:53:00,,0825.4,4.99,0.00,22.7,21.2,00.0,31.5,24.4,09.1,0001.6,0009.62,0016.27,0008.98
2023-01-20 06:54:00,,0825.4,5.00,0.00,22.7,21.1,00.0,31.4,24.4,09.1,0001.6,0009.73,0015.87,0009.11
2023-01-20 06:55:00,,0825.4,5.00,0.00,22.7,21.1,00.0,31.4,24.4,09.1,0001.1,0009.84,0016.18,0009.24
2023-01-20 06:56:00,,0825.4,5.00,0.00,22.6,21.1,00.0,31.4,24.4,09.1,0001.5,0009.99,0015.92,0009.38
2023-01-20 06:57:00,,0825.4,4.99,0.00,22.6,21.1,00.0,31.4,24.4,09.1,0000.7,0010.19,0016.19,0009.55
2023-01-20 06:58:00,,0825.4,4.99,0.00,22.6,21.1,00.0,31.4,24.4,09.1,0000.9,0010.35,0016.47,0009.73
2023-01-20 06:59:00,,0825.4,5.00,0.00,22.6,21.1,00.0,31.4,24.4,09.1,0001.0,0010.49,0016.10,0009.88
